Wind_Speed
6 6 6 6 5 6 6 5 9 11 10 10 9 9 11 11 12 10 10 9 8 8 8 8 8 7 6 4 4 3 3 2 2 2 2 2 2 2 1 1 1 1 1 1 1 1 1 1 1
6 6 5 5 6 11 10 7 11 13 11 11 10 11 13 13 13 13 13 11 11 10 10 10 9 8 7 6 5 4 4 3 3 2 2 2 2 1 1 1 1 1 1 1 1 1 1 1 1
6 6 5 4 5 7 10 13 14 15 12 11 12 12 13 12 13 14 13 13 12 12 11 11 11 9 8 7 6 6 5 4 4 3 3 2 2 2 2 2 2 2 3 3 2 2 2 2 2
5 4 4 5 5 5 11 15 15 13 12 11 12 13 12 12 13 13 14 14 12 13 13 12 12 11 10 9 8 7 6 5 5 5 4 3 3 3 3 3 3 3 4 4 4 4 4 4 4
4 3 6 6 4 9 15 16 14 12 12 12 13 15 12 13 13 14 14 15 14 14 14 14 13 13 11 10 10 9 8 7 6 6 5 5 4 4 4 4 4 5 5 5 5 5 6 6 5
4 1 4 7 8 13 18 18 13 12 14 14 14 16 15 14 14 15 15 15 15 14 15 15 15 14 13 12 11 10 10 9 8 7 6 6 6 5 5 5 5 6 6 6 7 7 6 7 7
3 1 1 3 9 15 18 19 15 14 15 15 14 16 16 15 15 16 17 16 15 16 17 16 16 15 14 13 12 12 11 10 9 9 8 8 7 7 7 6 7 7 7 7 8 8 8 8 8
3 1 2 2 10 14 19 19 16 15 16 15 17 18 17 16 16 17 17 18 17 17 18 18 17 16 16 14 13 13 13 12 11 10 10 9 9 8 7 8 8 8 8 8 8 8 9 10 10
1 1 2 4 10 13 17 18 16 17 17 17 18 18 16 16 18 19 19 19 19 18 18 18 18 17 17 16 14 14 13 12 11 10 10 9 8 8 9 9 9 9 9 8 9 9 9 10 10
2 2 3 10 13 13 15 17 15 16 17 18 20 18 18 18 19 20 20 20 20 20 19 19 18 18 17 16 15 14 13 13 12 11 11 10 9 9 9 9 9 9 9 9 9 8 8 9 10
4 6 8 11 12 13 13 14 15 17 18 19 20 19 18 18 19 20 22 21 20 20 21 20 19 18 17 15 15 15 15 14 13 12 11 10 9 8 8 9 9 9 9 9 8 7 8 8 8
6 7 9 11 12 13 13 14 15 17 19 20 20 20 19 18 19 20 20 20 21 21 22 21 19 18 16 16 17 17 16 14 13 11 10 10 9 9 8 8 8 8 7 6 6 6 7 7 8
8 8 10 11 12 14 15 15 15 16 18 19 20 19 18 17 18 18 19 22 20 21 21 20 20 17 17 17 17 17 15 13 12 11 10 10 10 9 8 8 7 6 6 6 6 6 6 6 6
6 8 9 10 11 14 17 17 16 17 19 19 19 18 18 17 16 16 18 19 21 21 20 20 20 18 17 17 17 17 15 13 11 10 10 10 9 8 7 6 6 5 5 6 6 6 5 5 5
5 6 7 10 13 15 18 18 17 18 20 20 19 17 17 16 15 15 17 19 20 21 22 21 20 19 18 17 16 15 15 13 12 11 10 9 8 7 7 6 6 6 6 6 6 5 5 4 4
4 7 10 12 13 15 18 19 20 19 20 21 21 18 16 15 14 14 15 17 19 20 21 21 20 19 18 16 16 15 15 13 12 11 9 8 7 7 6 5 5 5 5 5 5 4 4 4 5
6 11 12 12 14 17 19 20 20 19 21 21 21 19 17 15 14 13 14 16 17 18 19 19 19 18 17 17 16 15 14 13 12 10 8 6 5 4 4 3 3 3 3 4 4 4 4 5 5
8 11 12 13 15 18 19 20 20 20 21 21 20 19 17 14 13 12 13 16 17 19 19 19 18 18 17 16 15 13 12 11 9 7 6 4 4 3 2 2 2 3 3 4 5 5 5 5 6
9 10 12 14 16 18 19 18 19 19 20 20 19 18 16 13 9 8 11 15 16 18 18 17 17 17 16 15 13 12 11 9 7 6 5 4 4 3 1 1 2 3 4 5 6 6 6 6 7
11 12 13 16 17 17 17 16 17 18 19 18 19 18 16 12 7 5 6 10 14 16 16 16 16 16 16 14 13 12 11 9 7 6 5 4 3 2 1 1 2 3 4 5 5 6 7 8 8
10 13 15 16 16 16 15 14 17 18 18 17 17 16 15 12 7 5 6 8 11 14 15 16 16 16 16 15 13 12 11 9 7 6 5 4 3 2 2 1 2 3 4 5 6 7 8 8 8
13 14 15 14 13 13 14 14 15 17 18 16 15 15 13 11 8 5 4 7 10 13 14 16 15 15 15 14 14 13 11 9 7 6 5 5 4 3 3 2 2 3 4 5 7 8 9 9 9
15 15 14 13 12 14 13 11 15 16 18 16 15 14 13 11 7 4 3 4 8 10 12 13 15 14 14 13 12 11 10 8 7 7 6 5 5 4 3 3 3 4 6 6 8 9 10 10 10
15 15 13 12 15 16 9 8 14 15 17 16 15 13 12 10 7 4 3 4 7 9 10 11 13 13 12 12 11 10 10 9 8 7 7 6 5 5 5 5 5 6 7 8 9 10 11 11 12
15 15 14 14 16 15 10 9 12 13 16 16 13 12 10 8 5 4 2 3 5 7 9 10 12 13 12 11 11 11 10 10 8 8 8 7 6 6 7 7 8 8 9 10 11 12 13 13 14
16 14 15 18 17 16 14 11 10 11 14 14 13 11 9 7 5 3 2 1 3 5 7 8 10 12 12 12 12 12 11 10 9 9 8 7 7 8 9 10 11 11 12 12 13 14 15 16 16
16 16 16 18 16 16 17 12 8 10 12 13 12 10 9 7 5 3 2 2 3 5 7 8 10 11 12 12 13 13 11 11 10 10 9 10 10 11 12 12 13 14 15 15 16 17 17 17 18
18 17 17 17 16 14 14 15 14 8 13 15 13 11 8 7 6 4 4 3 4 5 7 8 10 12 12 13 13 12 12 12 11 11 11 12 13 13 14 15 16 17 18 18 19 19 19 20 20
19 19 19 18 16 15 16 17 15 13 13 15 14 12 9 7 6 5 5 5 5 5 7 9 10 10 11 12 12 12 12 12 12 13 13 14 15 16 17 17 18 19 20 21 21 21 21 22 22
22 20 19 19 17 16 15 18 16 17 14 13 13 12 10 9 7 7 6 6 6 6 7 9 10 11 11 12 12 13 13 14 14 15 16 17 18 19 19 20 21 21 22 23 24 23 24 24 24
Wind_Direction
1 360 5 10 18 15 21 358 306 298 292 287 279 272 267 269 267 265 265 257 244 241 236 223 216 214 214 222 229 240 246 240 226 201 177 162 154 144 139 145 148 133 108 96 93 76 61 79 105
355 353 1 8 16 4 347 313 296 299 298 291 284 275 270 265 264 269 265 255 246 241 235 230 224 222 221 226 226 239 251 249 242 230 211 199 199 199 196 226 241 243 256 266 253 273 291 269 227
348 346 6 25 30 352 317 304 298 301 304 295 288 279 275 271 266 265 260 254 246 239 234 232 231 228 227 228 231 240 248 248 244 242 234 228 237 250 259 260 256 257 262 262 259 262 261 258 256
341 343 16 40 23 311 290 290 297 305 304 300 294 284 273 273 266 263 258 254 250 242 234 233 233 231 229 231 235 242 247 250 250 252 248 245 245 250 257 266 266 266 266 262 258 258 255 254 255
334 348 39 18 332 291 287 288 296 297 293 291 288 284 280 272 268 261 258 255 250 242 235 235 233 231 232 234 237 245 248 251 255 259 256 253 252 252 257 266 272 274 269 264 260 259 254 250 252
310 8 44 350 322 288 294 299 302 298 293 293 288 285 282 269 266 264 262 256 248 243 239 236 233 232 234 235 240 244 248 251 254 259 261 260 261 261 262 262 266 270 271 272 270 265 259 254 253
298 306 75 334 291 289 290 297 299 289 288 294 291 286 279 268 262 262 259 255 248 243 239 236 234 233 234 236 240 245 249 251 255 260 262 265 268 269 266 263 264 266 270 274 273 268 262 259 259
307 281 114 307 284 285 287 296 298 293 292 292 291 284 277 266 262 259 254 253 248 240 237 237 235 233 235 236 239 244 249 252 254 258 263 267 271 271 270 271 268 268 270 273 274 270 266 261 261
291 165 88 284 270 279 288 297 299 299 299 296 292 287 283 275 266 262 255 249 245 239 236 237 235 237 236 235 239 244 248 251 253 260 268 269 270 271 270 272 270 271 271 272 272 268 266 262 258
249 216 258 266 262 275 290 301 305 302 302 301 296 292 284 279 271 263 255 248 245 237 235 234 234 235 236 236 239 241 245 249 253 261 268 267 270 274 276 279 274 270 269 273 274 270 270 264 258
266 252 262 274 283 285 294 303 306 306 305 302 296 294 286 277 268 261 253 244 243 238 235 234 234 233 232 234 237 240 246 250 254 261 264 266 272 277 276 281 278 271 270 273 271 267 270 267 262
292 282 284 290 300 308 308 306 304 306 306 304 300 296 290 279 265 255 245 243 242 240 237 236 230 230 232 234 237 239 245 251 255 260 261 263 272 279 277 282 283 279 275 278 282 285 280 268 262
298 305 305 308 315 322 321 315 310 307 311 311 305 299 290 278 265 256 241 234 232 233 233 233 231 229 233 236 238 240 243 249 254 260 260 261 271 278 284 287 287 287 284 287 289 291 285 277 261
304 307 307 305 310 320 326 322 316 312 315 317 311 302 295 285 267 258 239 236 230 231 231 230 227 227 232 236 238 240 244 247 249 255 256 260 269 274 281 289 296 296 292 295 300 296 289 282 276
325 324 315 307 314 321 324 324 319 317 320 321 321 313 301 290 272 259 243 237 231 229 227 227 224 226 232 237 240 241 245 245 249 252 255 260 267 273 281 287 297 298 299 302 304 302 302 295 294
346 311 300 305 310 314 319 321 320 321 324 324 323 319 307 298 279 261 246 236 228 225 224 222 222 226 230 236 240 240 240 245 247 251 255 259 262 271 284 289 299 308 315 318 318 317 316 311 306
327 308 311 313 310 311 313 316 319 325 326 327 325 322 313 300 285 262 242 229 225 220 219 219 221 225 230 238 238 235 240 243 244 249 251 254 256 264 283 293 308 327 333 337 335 327 326 328 326
306 310 310 305 302 305 307 311 316 326 327 330 330 328 319 309 287 263 240 227 223 220 218 217 222 226 229 233 230 231 236 241 240 237 234 237 250 269 284 308 336 351 348 343 348 340 343 340 333
280 285 286 289 290 298 309 312 317 327 330 331 335 336 334 325 301 264 235 225 220 217 217 218 220 224 227 228 225 230 233 232 227 225 222 235 243 257 268 298 337 359 353 351 354 349 344 339 335
271 276 281 283 285 297 309 313 314 323 330 331 332 337 338 332 312 277 238 226 218 213 213 219 218 220 224 224 224 226 225 224 219 215 223 233 235 231 263 286 321 340 340 343 346 342 341 340 338
267 275 278 287 293 299 305 308 314 321 327 329 332 338 340 339 325 287 258 233 217 215 215 220 220 221 221 224 220 217 215 216 214 220 228 222 222 237 249 268 313 329 336 340 341 337 338 338 338
270 273 277 285 291 292 293 301 307 319 325 329 334 338 340 339 331 303 254 228 218 214 216 217 217 218 218 216 214 214 216 216 216 218 225 222 232 240 237 256 298 320 332 339 341 341 341 341 341
262 272 277 283 284 282 287 298 302 320 331 335 337 337 338 341 337 318 258 228 215 212 211 213 214 212 210 210 212 216 215 215 219 224 229 227 227 230 243 267 293 311 321 329 333 335 337 338 338
267 276 277 284 285 281 290 297 296 317 329 331 333 333 335 336 339 328 271 227 208 210 214 212 212 211 209 209 208 210 216 223 226 230 229 229 230 241 258 273 287 302 313 321 326 328 331 330 330
263 277 287 288 298 301 301 284 287 318 326 326 327 328 331 333 332 331 303 239 213 208 208 209 209 208 209 209 210 216 222 225 226 229 230 231 239 255 265 275 285 294 303 312 317 319 322 322 323
258 271 283 290 301 314 303 280 287 311 324 324 321 322 323 327 330 330 331 234 216 207 202 200 202 208 210 213 218 224 227 223 228 231 233 242 255 264 270 277 283 290 297 305 310 312 314 316 317
256 260 269 280 291 301 296 291 272 298 317 326 322 319 316 314 312 305 296 254 222 209 207 210 210 210 214 218 222 228 230 228 233 235 243 255 263 269 274 279 283 288 293 299 305 308 309 311 312
254 261 265 265 274 283 287 291 291 303 317 323 324 319 312 301 298 289 276 263 249 230 218 218 220 221 223 225 228 230 233 237 240 245 253 262 267 271 276 280 284 287 290 296 300 302 304 307 308
250 253 256 260 259 269 285 295 297 304 311 316 317 313 308 300 293 284 275 268 265 248 231 226 222 223 228 232 232 235 241 243 248 254 260 266 270 274 276 280 283 287 291 294 298 299 302 304 304
252 251 252 257 261 261 272 284 290 298 300 304 306 304 298 295 289 281 272 264 260 255 244 235 232 232 234 236 238 244 247 250 255 260 265 269 273 276 278 281 283 287 290 292 295 298 300 300 301
Height
5899 5899 5898 5899 5899 5897 5894 5897 5897 5895 5895 5894 5894 5893 5892 5891 5891 5892 5890 5891 5893 5894 5895 5896 5897 5898 5898 5899 5900 5900 5900 5900 5900 5900 5900 5900 5900 5900 5900 5900 5900 5900 5899 5899 5899 5899 5899 5899 5899
5899 5899 5899 5899 5898 5896 5896 5896 5896 5894 5894 5893 5892 5892 5890 5889 5890 5890 5889 5890 5892 5893 5894 5895 5896 5897 5898 5899 5899 5900 5900 5900 5900 5900 5900 5900 5900 5900 5900 5900 5900 5900 5900 5899 5899 5899 5899 5899 5899
5898 5898 5898 5899 5898 5898 5898 5896 5894 5893 5892 5891 5890 5890 5888 5887 5887 5887 5888 5888 5890 5891 5893 5894 5895 5896 5897 5898 5899 5899 5900 5900 5900 5900 5900 5900 5900 5900 5900 5900 5900 5900 5899 5899 5899 5899 5899 5899 5899
5898 5898 5897 5898 5898 5899 5899 5896 5894 5892 5890 5890 5888 5887 5886 5885 5885 5885 5886 5887 5888 5889 5891 5892 5893 5895 5896 5897 5898 5898 5899 5899 5899 5900 5900 5900 5899 5899 5899 5899 5899 5899 5899 5899 5899 5899 5899 5899 5899
5897 5897 5897 5897 5897 5898 5897 5895 5892 5891 5889 5888 5886 5883 5882 5883 5883 5884 5884 5885 5886 5887 5889 5890 5891 5893 5894 5895 5897 5897 5898 5899 5899 5899 5899 5899 5899 5899 5899 5898 5898 5898 5898 5898 5898 5898 5898 5898 5898
5896 5896 5897 5897 5898 5897 5895 5892 5891 5889 5887 5885 5884 5882 5880 5880 5881 5882 5882 5882 5884 5885 5887 5888 5889 5890 5892 5894 5895 5896 5897 5898 5898 5898 5898 5898 5898 5898 5898 5897 5897 5897 5897 5897 5897 5897 5897 5897 5897
5896 5895 5896 5898 5899 5897 5893 5890 5889 5887 5884 5883 5881 5880 5878 5877 5879 5879 5879 5879 5881 5883 5884 5885 5887 5888 5890 5892 5893 5894 5895 5896 5896 5897 5897 5897 5897 5897 5897 5896 5896 5896 5896 5896 5896 5896 5896 5896 5897
5894 5895 5895 5898 5899 5895 5891 5888 5886 5884 5882 5881 5879 5876 5874 5874 5875 5875 5876 5876 5877 5879 5881 5882 5884 5886 5887 5889 5891 5892 5894 5894 5895 5895 5896 5896 5896 5896 5895 5895 5895 5895 5895 5895 5894 5895 5895 5895 5895
5893 5894 5894 5896 5896 5893 5889 5887 5884 5882 5880 5878 5875 5873 5872 5871 5872 5872 5871 5871 5873 5875 5877 5879 5881 5883 5885 5887 5889 5890 5892 5893 5893 5894 5894 5894 5894 5894 5894 5894 5894 5893 5893 5893 5893 5893 5893 5893 5893
5892 5892 5893 5893 5892 5890 5887 5884 5882 5880 5877 5874 5871 5869 5868 5868 5868 5868 5866 5867 5869 5872 5874 5876 5878 5880 5882 5885 5886 5888 5889 5891 5891 5892 5893 5893 5893 5893 5892 5892 5892 5892 5892 5892 5891 5891 5891 5891 5892
5890 5891 5890 5889 5888 5886 5884 5882 5880 5878 5875 5872 5867 5865 5864 5863 5863 5863 5862 5862 5865 5868 5870 5872 5874 5877 5879 5882 5884 5886 5887 5888 5889 5890 5891 5891 5891 5891 5890 5890 5890 5890 5890 5890 5890 5890 5890 5889 5890
5888 5888 5887 5886 5885 5883 5882 5880 5878 5875 5872 5869 5864 5862 5860 5859 5858 5858 5858 5859 5862 5864 5866 5867 5871 5874 5877 5879 5881 5883 5885 5886 5887 5888 5889 5889 5889 5889 5889 5888 5888 5888 5888 5889 5889 5888 5888 5888 5888
5887 5886 5885 5884 5883 5881 5879 5877 5875 5873 5869 5866 5862 5859 5857 5855 5854 5853 5853 5855 5857 5860 5863 5866 5868 5871 5874 5877 5879 5881 5883 5884 5885 5886 5887 5888 5888 5888 5887 5887 5887 5887 5887 5887 5887 5887 5887 5887 5887
5885 5885 5884 5882 5881 5879 5877 5875 5872 5869 5866 5863 5860 5857 5854 5852 5850 5849 5848 5851 5854 5857 5859 5862 5866 5869 5871 5874 5876 5878 5880 5882 5883 5884 5885 5886 5886 5886 5886 5886 5886 5886 5886 5886 5886 5885 5885 5885 5885
5883 5882 5881 5879 5878 5877 5876 5873 5870 5867 5864 5861 5857 5854 5851 5849 5847 5847 5847 5848 5851 5854 5857 5859 5863 5866 5869 5872 5874 5876 5878 5880 5881 5883 5883 5884 5884 5885 5885 5885 5885 5885 5884 5884 5884 5884 5883 5883 5884
5881 5880 5878 5877 5876 5875 5875 5872 5868 5865 5862 5858 5855 5851 5848 5846 5843 5842 5843 5846 5848 5851 5853 5856 5860 5864 5867 5870 5872 5874 5876 5878 5879 5881 5881 5882 5882 5883 5883 5884 5884 5884 5883 5883 5883 5883 5882 5882 5882
5880 5879 5877 5877 5875 5874 5873 5870 5866 5863 5860 5856 5853 5849 5845 5842 5840 5839 5840 5843 5845 5847 5851 5854 5858 5861 5865 5867 5870 5871 5873 5875 5877 5878 5880 5880 5881 5881 5882 5882 5883 5883 5883 5882 5882 5882 5881 5881 5881
5879 5879 5877 5877 5875 5874 5871 5868 5864 5862 5858 5855 5851 5847 5843 5839 5837 5836 5837 5840 5842 5845 5848 5852 5856 5859 5862 5865 5867 5869 5872 5873 5875 5877 5878 5879 5880 5880 5881 5881 5882 5882 5882 5882 5881 5881 5881 5880 5880
5878 5879 5878 5876 5874 5872 5870 5867 5863 5860 5857 5853 5850 5846 5841 5837 5834 5833 5835 5837 5840 5842 5846 5850 5853 5856 5859 5862 5865 5867 5870 5872 5874 5875 5877 5878 5878 5879 5880 5881 5881 5881 5881 5881 5881 5880 5880 5880 5879
5876 5876 5876 5874 5872 5870 5867 5865 5861 5857 5855 5852 5849 5845 5841 5837 5834 5833 5832 5835 5838 5841 5844 5848 5851 5854 5857 5860 5863 5866 5868 5871 5873 5874 5875 5877 5877 5878 5879 5880 5880 5881 5881 5881 5880 5880 5880 5879 5878
5874 5873 5872 5870 5869 5867 5865 5863 5859 5856 5854 5851 5848 5844 5841 5837 5835 5834 5834 5836 5837 5840 5843 5847 5849 5852 5856 5859 5862 5864 5867 5870 5872 5873 5875 5876 5877 5877 5878 5879 5880 5880 5880 5880 5879 5879 5879 5878 5877
5871 5870 5869 5867 5866 5865 5863 5859 5857 5854 5852 5849 5847 5844 5841 5838 5835 5834 5834 5835 5837 5840 5843 5845 5848 5851 5854 5857 5860 5863 5866 5868 5870 5872 5874 5875 5876 5877 5878 5878 5879 5879 5879 5879 5878 5878 5877 5876 5875
5867 5867 5866 5864 5863 5861 5858 5856 5855 5854 5851 5849 5846 5844 5841 5838 5836 5835 5835 5835 5837 5839 5841 5844 5847 5850 5853 5856 5859 5862 5864 5867 5869 5871 5872 5874 5875 5876 5877 5877 5878 5878 5878 5878 5877 5876 5876 5875 5874
5864 5864 5862 5861 5859 5856 5854 5855 5853 5851 5850 5848 5846 5844 5841 5839 5837 5836 5835 5836 5837 5839 5840 5843 5846 5849 5852 5855 5858 5861 5863 5866 5868 5870 5871 5872 5874 5875 5876 5876 5877 5877 5877 5876 5876 5875 5874 5873 5872
5861 5861 5860 5858 5855 5852 5851 5851 5850 5850 5849 5848 5846 5844 5842 5840 5838 5837 5836 5836 5837 5839 5840 5843 5845 5848 5851 5854 5857 5859 5862 5864 5867 5868 5870 5871 5873 5874 5874 5875 5875 5875 5875 5875 5874 5873 5872 5871 5870
5858 5858 5858 5856 5854 5851 5848 5847 5848 5848 5848 5847 5845 5844 5842 5841 5839 5838 5838 5838 5838 5839 5841 5843 5845 5848 5851 5854 5856 5858 5861 5863 5865 5867 5868 5870 5871 5872 5872 5873 5873 5873 5873 5872 5871 5871 5869 5868 5867
5854 5855 5855 5854 5852 5851 5847 5844 5843 5845 5846 5845 5844 5843 5842 5841 5840 5840 5839 5839 5840 5840 5842 5844 5845 5848 5850 5852 5855 5857 5859 5862 5863 5865 5866 5868 5869 5869 5870 5870 5870 5870 5870 5869 5868 5868 5866 5865 5864
5851 5852 5852 5851 5850 5849 5847 5843 5841 5840 5843 5843 5843 5842 5841 5840 5840 5840 5839 5840 5840 5841 5842 5843 5845 5847 5849 5851 5853 5856 5858 5860 5861 5862 5864 5865 5866 5866 5867 5867 5867 5867 5866 5866 5865 5864 5863 5862 5860
5846 5847 5847 5847 5847 5847 5845 5844 5840 5840 5841 5841 5841 5841 5840 5840 5839 5839 5839 5839 5840 5840 5841 5843 5844 5846 5848 5850 5852 5854 5856 5857 5858 5860 5861 5862 5863 5863 5863 5863 5863 5863 5862 5862 5861 5860 5859 5857 5856
5841 5841 5843 5843 5843 5843 5844 5845 5839 5839 5839 5839 5839 5839 5839 5839 5838 5838 5838 5839 5839 5840 5840 5841 5843 5844 5846 5848 5850 5851 5853 5854 5855 5856 5857 5858 5859 5859 5859 5859 5858 5858 5857 5857 5856 5855 5854 5852 5851